Year,Month,Day,Hour,Minute,Value (Times are PST for temperature in C)
2022,10,16,00,00,16.70
2022,10,16,00,01,16.70
2022,10,16,00,02,16.70
2022,10,16,00,03,16.70
2022,10,16,00,04,16.70
2022,10,16,00,05,16.60
2022,10,16,00,06,16.60
2022,10,16,00,07,16.60
2022,10,16,00,08,16.60
2022,10,16,00,09,16.60
2022,10,16,00,10,16.50
2022,10,16,00,11,16.40
2022,10,16,00,12,16.40
2022,10,16,00,13,16.40
2022,10,16,00,14,16.40
2022,10,16,00,15,16.40
2022,10,16,00,16,16.30
2022,10,16,00,17,16.30
2022,10,16,00,18,16.30
2022,10,16,00,19,16.20
2022,10,16,00,20,16.20
2022,10,16,00,21,16.20
2022,10,16,00,22,16.10
2022,10,16,00,23,16.10
2022,10,16,00,24,16.10
2022,10,16,00,25,16.00
2022,10,16,00,26,16.00
2022,10,16,00,27,16.00
2022,10,16,00,28,15.90
2022,10,16,00,29,15.90
2022,10,16,00,30,15.80
2022,10,16,00,31,15.80
2022,10,16,00,32,15.70
2022,10,16,00,33,15.70
2022,10,16,00,34,15.60
2022,10,16,00,35,15.60
2022,10,16,00,36,15.60
2022,10,16,00,37,15.50
2022,10,16,00,38,15.50
2022,10,16,00,39,15.40
2022,10,16,00,40,15.40
2022,10,16,00,41,15.40
2022,10,16,00,42,15.40
2022,10,16,00,43,15.30
2022,10,16,00,44,15.30
2022,10,16,00,45,15.30
2022,10,16,00,46,15.30
2022,10,16,00,47,15.30
2022,10,16,00,48,15.30
2022,10,16,00,49,15.30
2022,10,16,00,50,15.30
2022,10,16,00,51,15.30
2022,10,16,00,52,15.40
2022,10,16,00,53,15.40
2022,10,16,00,54,15.40
2022,10,16,00,55,15.50
2022,10,16,00,56,15.50
2022,10,16,00,57,15.60
2022,10,16,00,58,15.60
2022,10,16,00,59,15.60
2022,10,16,01,00,15.60
2022,10,16,01,01,15.50
2022,10,16,01,02,15.50
2022,10,16,01,03,15.50
2022,10,16,01,04,15.50
2022,10,16,01,05,15.50
2022,10,16,01,06,15.50
2022,10,16,01,07,15.60
2022,10,16,01,08,15.60
2022,10,16,01,09,15.70
2022,10,16,01,10,15.70
2022,10,16,01,11,15.70
2022,10,16,01,12,15.70
2022,10,16,01,13,15.70
2022,10,16,01,14,15.70
2022,10,16,01,15,15.60
2022,10,16,01,16,15.60
2022,10,16,01,17,15.60
2022,10,16,01,18,15.60
2022,10,16,01,19,15.60
2022,10,16,01,20,15.60
2022,10,16,01,21,15.60
2022,10,16,01,22,15.60
2022,10,16,01,23,15.70
2022,10,16,01,24,15.80
2022,10,16,01,25,15.80
2022,10,16,01,26,15.90
2022,10,16,01,27,16.00
2022,10,16,01,28,16.00
2022,10,16,01,29,16.10
2022,10,16,01,30,16.10
2022,10,16,01,31,16.20
2022,10,16,01,32,16.20
2022,10,16,01,33,16.20
2022,10,16,01,34,16.20
2022,10,16,01,35,16.20
2022,10,16,01,36,16.10
2022,10,16,01,37,16.10
2022,10,16,01,38,16.00
2022,10,16,01,39,15.90
2022,10,16,01,40,15.80
2022,10,16,01,41,15.80
2022,10,16,01,42,15.70
2022,10,16,01,43,15.70
2022,10,16,01,44,15.70
2022,10,16,01,45,15.70
2022,10,16,01,46,15.70
2022,10,16,01,47,15.80
2022,10,16,01,48,15.90
2022,10,16,01,49,16.00
2022,10,16,01,50,16.10
2022,10,16,01,51,16.30
2022,10,16,01,52,16.40
2022,10,16,01,53,16.50
2022,10,16,01,54,16.50
2022,10,16,01,55,16.60
2022,10,16,01,56,16.60
2022,10,16,01,57,16.70
2022,10,16,01,58,16.70
2022,10,16,01,59,16.70
2022,10,16,02,00,16.70
2022,10,16,02,01,16.70
2022,10,16,02,02,16.70
2022,10,16,02,03,16.70
2022,10,16,02,04,16.70
2022,10,16,02,05,16.70
2022,10,16,02,06,16.70
2022,10,16,02,07,16.80
2022,10,16,02,08,16.90
2022,10,16,02,09,17.00
2022,10,16,02,10,17.00
2022,10,16,02,11,17.10
2022,10,16,02,12,17.20
2022,10,16,02,13,17.20
2022,10,16,02,14,17.20
2022,10,16,02,15,17.20
2022,10,16,02,16,17.20
2022,10,16,02,17,17.30
2022,10,16,02,18,17.30
2022,10,16,02,19,17.30
2022,10,16,02,20,17.30
2022,10,16,02,21,17.30
2022,10,16,02,22,17.30
2022,10,16,02,23,17.30
2022,10,16,02,24,17.40
2022,10,16,02,25,17.40
2022,10,16,02,26,17.40
2022,10,16,02,27,17.30
2022,10,16,02,28,17.30
2022,10,16,02,29,17.30
2022,10,16,02,30,17.30
2022,10,16,02,31,17.30
2022,10,16,02,32,17.30
2022,10,16,02,33,17.30
2022,10,16,02,34,17.30
2022,10,16,02,35,17.20
2022,10,16,02,36,17.20
2022,10,16,02,37,17.30
2022,10,16,02,38,17.30
2022,10,16,02,39,17.30
2022,10,16,02,40,17.40
2022,10,16,02,41,17.40
2022,10,16,02,42,17.40
2022,10,16,02,43,17.40
2022,10,16,02,44,17.40
2022,10,16,02,45,17.50
2022,10,16,02,46,17.50
2022,10,16,02,47,17.50
2022,10,16,02,48,17.50
2022,10,16,02,49,17.60
2022,10,16,02,50,17.60
2022,10,16,02,51,17.60
2022,10,16,02,52,17.60
2022,10,16,02,53,17.60
2022,10,16,02,54,17.60
2022,10,16,02,55,17.70
2022,10,16,02,56,17.80
2022,10,16,02,57,17.80
2022,10,16,02,58,17.70
2022,10,16,02,59,17.70
2022,10,16,03,00,17.70
2022,10,16,03,01,17.60
2022,10,16,03,02,17.60
2022,10,16,03,03,17.60
2022,10,16,03,04,17.50
2022,10,16,03,05,17.40
2022,10,16,03,06,17.40
2022,10,16,03,07,17.30
2022,10,16,03,08,17.30
2022,10,16,03,09,17.40
2022,10,16,03,10,17.40
2022,10,16,03,11,17.40
2022,10,16,03,12,17.30
2022,10,16,03,13,17.30
2022,10,16,03,14,17.20
2022,10,16,03,15,17.00
2022,10,16,03,16,16.80
2022,10,16,03,17,16.60
2022,10,16,03,18,16.50
2022,10,16,03,19,16.40
2022,10,16,03,20,16.30
2022,10,16,03,21,16.20
2022,10,16,03,22,15.90
2022,10,16,03,23,15.80
2022,10,16,03,24,15.60
2022,10,16,03,25,15.50
2022,10,16,03,26,15.50
2022,10,16,03,27,15.40
2022,10,16,03,28,15.50
2022,10,16,03,29,15.60
2022,10,16,03,30,15.60
2022,10,16,03,31,15.60
2022,10,16,03,32,15.70
2022,10,16,03,33,15.70
2022,10,16,03,34,15.80
2022,10,16,03,35,15.80
2022,10,16,03,36,15.90
2022,10,16,03,37,16.10
2022,10,16,03,38,16.20
2022,10,16,03,39,16.40
2022,10,16,03,40,16.60
2022,10,16,03,41,16.80
2022,10,16,03,42,16.90
2022,10,16,03,43,16.90
2022,10,16,03,44,16.90
2022,10,16,03,45,16.90
2022,10,16,03,46,16.90
2022,10,16,03,47,16.90
2022,10,16,03,48,16.90
2022,10,16,03,49,17.20
2022,10,16,03,50,17.50
2022,10,16,03,51,17.60
2022,10,16,03,52,17.70
2022,10,16,03,53,17.70
2022,10,16,03,54,17.70
2022,10,16,03,55,17.70
2022,10,16,03,56,17.70
2022,10,16,03,57,17.70
2022,10,16,03,58,17.70
2022,10,16,03,59,17.70
2022,10,16,04,00,17.80
2022,10,16,04,01,17.80
2022,10,16,04,02,17.80
2022,10,16,04,03,17.80
2022,10,16,04,04,17.80
2022,10,16,04,05,17.80
2022,10,16,04,06,17.80
2022,10,16,04,07,17.80
2022,10,16,04,08,17.90
2022,10,16,04,09,17.90
2022,10,16,04,10,17.90
2022,10,16,04,11,17.90
2022,10,16,04,12,17.90
2022,10,16,04,13,17.90
2022,10,16,04,14,17.90
2022,10,16,04,15,17.90
2022,10,16,04,16,17.90
2022,10,16,04,17,17.90
2022,10,16,04,18,17.90
2022,10,16,04,19,17.90
2022,10,16,04,20,17.80
2022,10,16,04,21,17.80
2022,10,16,04,22,17.80
2022,10,16,04,23,17.80
2022,10,16,04,24,17.80
2022,10,16,04,25,17.80
2022,10,16,04,26,17.80
2022,10,16,04,27,17.80
2022,10,16,04,28,17.80
2022,10,16,04,29,17.80
2022,10,16,04,30,17.80
2022,10,16,04,31,17.80
2022,10,16,04,32,17.70
2022,10,16,04,33,17.70
2022,10,16,04,34,17.70
2022,10,16,04,35,17.70
2022,10,16,04,36,17.70
2022,10,16,04,37,17.70
2022,10,16,04,38,17.70
2022,10,16,04,39,17.70
2022,10,16,04,40,17.70
2022,10,16,04,41,17.70
2022,10,16,04,42,17.70
2022,10,16,04,43,17.70
2022,10,16,04,44,17.60
2022,10,16,04,45,17.60
2022,10,16,04,46,17.60
2022,10,16,04,47,17.50
2022,10,16,04,48,17.50
2022,10,16,04,49,17.40
2022,10,16,04,50,17.40
2022,10,16,04,51,17.40
2022,10,16,04,52,17.40
2022,10,16,04,53,17.40
2022,10,16,04,54,17.40
2022,10,16,04,55,17.40
2022,10,16,04,56,17.40
2022,10,16,04,57,17.40
2022,10,16,04,58,17.40
2022,10,16,04,59,17.40
2022,10,16,05,00,17.40
2022,10,16,05,01,17.40
2022,10,16,05,02,17.40
2022,10,16,05,03,17.40
2022,10,16,05,04,17.40
2022,10,16,05,05,17.40
2022,10,16,05,06,17.40
2022,10,16,05,07,17.30
2022,10,16,05,08,17.30
2022,10,16,05,09,17.30
2022,10,16,05,10,17.30
2022,10,16,05,11,17.30
2022,10,16,05,12,17.30
2022,10,16,05,13,17.30
2022,10,16,05,14,17.30
2022,10,16,05,15,17.30
2022,10,16,05,16,17.30
2022,10,16,05,17,17.30
2022,10,16,05,18,17.30
2022,10,16,05,19,17.30
2022,10,16,05,20,17.30
2022,10,16,05,21,17.40
2022,10,16,05,22,17.40
2022,10,16,05,23,17.40
2022,10,16,05,24,17.40
2022,10,16,05,25,17.40
2022,10,16,05,26,17.40
2022,10,16,05,27,17.40
2022,10,16,05,28,17.40
2022,10,16,05,29,17.40
2022,10,16,05,30,17.40
2022,10,16,05,31,17.40
2022,10,16,05,32,17.40
2022,10,16,05,33,17.40
2022,10,16,05,34,17.40
2022,10,16,05,35,17.40
2022,10,16,05,36,17.40
2022,10,16,05,37,17.40
2022,10,16,05,38,17.40
2022,10,16,05,39,17.40
2022,10,16,05,40,17.40
2022,10,16,05,41,17.40
2022,10,16,05,42,17.40
2022,10,16,05,43,17.40
2022,10,16,05,44,17.40
2022,10,16,05,45,17.40
2022,10,16,05,46,17.40
2022,10,16,05,47,17.40
2022,10,16,05,48,17.40
2022,10,16,05,49,17.40
2022,10,16,05,50,17.40
2022,10,16,05,51,17.40
2022,10,16,05,52,17.40
2022,10,16,05,53,17.40
2022,10,16,05,54,17.50
2022,10,16,05,55,17.50
2022,10,16,05,56,17.50
2022,10,16,05,57,17.50
2022,10,16,05,58,17.50
2022,10,16,05,59,17.50
2022,10,16,06,00,17.60
2022,10,16,06,01,17.60
2022,10,16,06,02,17.60
2022,10,16,06,03,17.60
2022,10,16,06,04,17.60
2022,10,16,06,05,17.60
2022,10,16,06,06,17.60
2022,10,16,06,07,17.70
2022,10,16,06,08,17.70
2022,10,16,06,09,17.70
2022,10,16,06,10,17.70
2022,10,16,06,11,17.70
2022,10,16,06,12,17.70
2022,10,16,06,13,17.70
2022,10,16,06,14,17.70
2022,10,16,06,15,17.60
2022,10,16,06,16,17.60
2022,10,16,06,17,17.60
2022,10,16,06,18,17.60
2022,10,16,06,19,17.70
2022,10,16,06,20,17.70
2022,10,16,06,21,17.70
2022,10,16,06,22,17.70
2022,10,16,06,23,17.70
2022,10,16,06,24,17.70
2022,10,16,06,25,17.70
2022,10,16,06,26,17.70
2022,10,16,06,27,17.70
2022,10,16,06,28,17.70
2022,10,16,06,29,17.70
2022,10,16,06,30,17.80
2022,10,16,06,31,17.80
2022,10,16,06,32,17.80
2022,10,16,06,33,17.80
2022,10,16,06,34,17.80
2022,10,16,06,35,17.70
2022,10,16,06,36,17.70
2022,10,16,06,37,17.70
2022,10,16,06,38,17.70
2022,10,16,06,39,17.70
2022,10,16,06,40,17.70
2022,10,16,06,41,17.60
2022,10,16,06,42,17.60
2022,10,16,06,43,17.60
2022,10,16,06,44,17.60
2022,10,16,06,45,17.50
2022,10,16,06,46,17.50
2022,10,16,06,47,17.50
2022,10,16,06,48,17.50
2022,10,16,06,49,17.50
2022,10,16,06,50,17.50
2022,10,16,06,51,17.60
2022,10,16,06,52,17.60
2022,10,16,06,53,17.60
2022,10,16,06,54,17.60
2022,10,16,06,55,17.50
2022,10,16,06,56,17.50
2022,10,16,06,57,17.60
2022,10,16,06,58,17.50
2022,10,16,06,59,17.60
2022,10,16,07,00,17.60
2022,10,16,07,01,17.50
2022,10,16,07,02,17.50
2022,10,16,07,03,17.50
2022,10,16,07,04,17.50
2022,10,16,07,05,17.50
2022,10,16,07,06,17.50
2022,10,16,07,07,17.40
2022,10,16,07,08,17.50
2022,10,16,07,09,17.40
2022,10,16,07,10,17.50
2022,10,16,07,11,17.50
2022,10,16,07,12,17.50
2022,10,16,07,13,17.50
2022,10,16,07,14,17.40
2022,10,16,07,15,17.40
2022,10,16,07,16,17.40
2022,10,16,07,17,17.40
2022,10,16,07,18,17.40
2022,10,16,07,19,17.40
2022,10,16,07,20,17.40
2022,10,16,07,21,17.40
2022,10,16,07,22,17.30
2022,10,16,07,23,17.30
2022,10,16,07,24,17.30
2022,10,16,07,25,17.40
2022,10,16,07,26,17.40
2022,10,16,07,27,17.40
2022,10,16,07,28,17.40
2022,10,16,07,29,17.40
2022,10,16,07,30,17.40
2022,10,16,07,31,17.40
2022,10,16,07,32,17.40
2022,10,16,07,33,17.40
2022,10,16,07,34,17.40
2022,10,16,07,35,17.40
2022,10,16,07,36,17.40
2022,10,16,07,37,17.40
2022,10,16,07,38,17.30
2022,10,16,07,39,17.30
2022,10,16,07,40,17.30
2022,10,16,07,41,17.30
2022,10,16,07,42,17.30
2022,10,16,07,43,17.30
2022,10,16,07,44,17.30
2022,10,16,07,45,17.30
2022,10,16,07,46,17.30
2022,10,16,07,47,17.30
2022,10,16,07,48,17.30
2022,10,16,07,49,17.20
2022,10,16,07,50,17.20
2022,10,16,07,51,17.20
2022,10,16,07,52,17.20
2022,10,16,07,53,17.20
2022,10,16,07,54,17.20
2022,10,16,07,55,17.20
2022,10,16,07,56,17.20
2022,10,16,07,57,17.20
2022,10,16,07,58,17.20
2022,10,16,07,59,17.20
2022,10,16,08,00,17.30
2022,10,16,08,01,17.30
2022,10,16,08,02,17.30
2022,10,16,08,03,17.30
2022,10,16,08,04,17.40
2022,10,16,08,05,17.40
2022,10,16,08,06,17.50
2022,10,16,08,07,17.50
2022,10,16,08,08,17.60
2022,10,16,08,09,17.60
2022,10,16,08,10,17.50
2022,10,16,08,11,17.50
2022,10,16,08,12,17.50
2022,10,16,08,13,17.50
2022,10,16,08,14,17.50
2022,10,16,08,15,17.50
2022,10,16,08,16,17.60
2022,10,16,08,17,17.50
2022,10,16,08,18,17.50
2022,10,16,08,19,17.50
2022,10,16,08,20,17.50
2022,10,16,08,21,17.50
2022,10,16,08,22,17.50
2022,10,16,08,23,17.60
2022,10,16,08,24,17.60
2022,10,16,08,25,17.60
2022,10,16,08,26,17.60
2022,10,16,08,27,17.60
2022,10,16,08,28,17.60
2022,10,16,08,29,17.60
2022,10,16,08,30,17.60
2022,10,16,08,31,17.70
2022,10,16,08,32,17.70
2022,10,16,08,33,17.70
2022,10,16,08,34,17.80
2022,10,16,08,35,17.80
2022,10,16,08,36,17.80
2022,10,16,08,37,17.80
2022,10,16,08,38,17.80
2022,10,16,08,39,17.80
2022,10,16,08,40,17.80
2022,10,16,08,41,17.80
2022,10,16,08,42,17.80
2022,10,16,08,43,17.90
2022,10,16,08,44,17.90
2022,10,16,08,45,17.90
2022,10,16,08,46,17.90
2022,10,16,08,47,17.90
2022,10,16,08,48,17.90
2022,10,16,08,49,18.00
2022,10,16,08,50,18.00
2022,10,16,08,51,18.10
2022,10,16,08,52,18.10
2022,10,16,08,53,18.10
2022,10,16,08,54,18.20
2022,10,16,08,55,18.20
2022,10,16,08,56,18.20
2022,10,16,08,57,18.20
2022,10,16,08,58,18.20
2022,10,16,08,59,18.20
2022,10,16,09,00,18.20
2022,10,16,09,01,18.30
2022,10,16,09,02,18.30
2022,10,16,09,03,18.30
2022,10,16,09,04,18.30
2022,10,16,09,05,18.30
2022,10,16,09,06,18.20
2022,10,16,09,07,18.20
2022,10,16,09,08,18.20
2022,10,16,09,09,18.20
2022,10,16,09,10,18.20
2022,10,16,09,11,18.20
2022,10,16,09,12,18.20
2022,10,16,09,13,18.20
2022,10,16,09,14,18.20
2022,10,16,09,15,18.20
2022,10,16,09,16,18.20
2022,10,16,09,17,18.20
2022,10,16,09,18,18.20
2022,10,16,09,19,18.20
2022,10,16,09,20,18.20
2022,10,16,09,21,18.20
2022,10,16,09,22,18.20
2022,10,16,09,23,18.20
2022,10,16,09,24,18.10
2022,10,16,09,25,18.10
2022,10,16,09,26,18.10
2022,10,16,09,27,18.10
2022,10,16,09,28,18.10
2022,10,16,09,29,18.10
2022,10,16,09,30,18.10
2022,10,16,09,31,18.10
2022,10,16,09,32,18.10
2022,10,16,09,33,18.10
2022,10,16,09,34,18.10
2022,10,16,09,35,18.10
2022,10,16,09,36,18.10
2022,10,16,09,37,18.10
2022,10,16,09,38,18.10
2022,10,16,09,39,18.10
2022,10,16,09,40,18.10
2022,10,16,09,41,18.10
2022,10,16,09,42,18.10
2022,10,16,09,43,18.10
2022,10,16,09,44,18.10
2022,10,16,09,45,18.20
2022,10,16,09,46,18.20
2022,10,16,09,47,18.20
2022,10,16,09,48,18.20
2022,10,16,09,49,18.30
2022,10,16,09,50,18.30
2022,10,16,09,51,18.30
2022,10,16,09,52,18.30
2022,10,16,09,53,18.30
2022,10,16,09,54,18.30
2022,10,16,09,55,18.30
2022,10,16,09,56,18.30
2022,10,16,09,57,18.40
2022,10,16,09,58,18.40
2022,10,16,09,59,18.30
2022,10,16,10,00,18.30
2022,10,16,10,01,18.30
2022,10,16,10,02,18.30
2022,10,16,10,03,18.30
2022,10,16,10,04,18.30
2022,10,16,10,05,18.30
2022,10,16,10,06,18.30
2022,10,16,10,07,18.30
2022,10,16,10,08,18.30
2022,10,16,10,09,18.30
2022,10,16,10,10,18.30
2022,10,16,10,11,18.30
2022,10,16,10,12,18.30
2022,10,16,10,13,18.30
2022,10,16,10,14,18.30
2022,10,16,10,15,18.30
2022,10,16,10,16,18.40
2022,10,16,10,17,18.40
2022,10,16,10,18,18.40
2022,10,16,10,19,18.50
2022,10,16,10,20,18.50
2022,10,16,10,21,18.50
2022,10,16,10,22,18.60
2022,10,16,10,23,18.60
2022,10,16,10,24,18.60
2022,10,16,10,25,18.60
2022,10,16,10,26,18.60
2022,10,16,10,27,18.60
2022,10,16,10,28,18.70
2022,10,16,10,29,18.70
2022,10,16,10,30,18.70
2022,10,16,10,31,18.70
2022,10,16,10,32,18.70
2022,10,16,10,33,18.80
2022,10,16,10,34,18.80
2022,10,16,10,35,18.80
2022,10,16,10,36,18.80
2022,10,16,10,37,18.80
2022,10,16,10,38,18.90
2022,10,16,10,39,18.90
2022,10,16,10,40,18.90
2022,10,16,10,41,19.00
2022,10,16,10,42,19.00
2022,10,16,10,43,19.00
2022,10,16,10,44,19.10
2022,10,16,10,45,19.10
2022,10,16,10,46,19.10
2022,10,16,10,47,19.10
2022,10,16,10,48,19.10
2022,10,16,10,49,19.10
2022,10,16,10,50,19.20
2022,10,16,10,51,19.20
2022,10,16,10,52,19.20
2022,10,16,10,53,19.20
2022,10,16,10,54,19.20
2022,10,16,10,55,19.20
2022,10,16,10,56,19.20
2022,10,16,10,57,19.20
2022,10,16,10,58,19.20
2022,10,16,10,59,19.20
2022,10,16,11,00,19.20
2022,10,16,11,01,19.20
2022,10,16,11,02,19.20
2022,10,16,11,03,19.20
2022,10,16,11,04,19.20
2022,10,16,11,05,19.30
2022,10,16,11,06,19.30
2022,10,16,11,07,19.30
2022,10,16,11,08,19.40
2022,10,16,11,09,19.40
2022,10,16,11,10,19.40
2022,10,16,11,11,19.40
2022,10,16,11,12,19.40
2022,10,16,11,13,19.50
2022,10,16,11,14,19.50
2022,10,16,11,15,19.40
2022,10,16,11,16,19.40
2022,10,16,11,17,19.40
2022,10,16,11,18,19.40
2022,10,16,11,19,19.40
2022,10,16,11,20,19.50
2022,10,16,11,21,19.50
2022,10,16,11,22,19.50
2022,10,16,11,23,19.60
2022,10,16,11,24,19.60
2022,10,16,11,25,19.60
2022,10,16,11,26,19.60
2022,10,16,11,27,19.60
2022,10,16,11,28,19.70
2022,10,16,11,29,19.70
2022,10,16,11,30,19.70
2022,10,16,11,31,19.70
2022,10,16,11,32,19.70
2022,10,16,11,33,19.70
2022,10,16,11,34,19.80
2022,10,16,11,35,19.80
2022,10,16,11,36,19.90
2022,10,16,11,37,19.90
2022,10,16,11,38,19.90
2022,10,16,11,39,19.90
2022,10,16,11,40,19.90
2022,10,16,11,41,19.90
2022,10,16,11,42,19.90
2022,10,16,11,43,19.90
2022,10,16,11,44,19.90
2022,10,16,11,45,20.00
2022,10,16,11,46,20.00
2022,10,16,11,47,19.90
2022,10,16,11,48,19.90
2022,10,16,11,49,19.90
2022,10,16,11,50,19.90
2022,10,16,11,51,19.90
2022,10,16,11,52,19.90
2022,10,16,11,53,20.00
2022,10,16,11,54,20.00
2022,10,16,11,55,20.00
2022,10,16,11,56,20.00
2022,10,16,11,57,20.00
2022,10,16,11,58,20.00
2022,10,16,11,59,20.00
2022,10,16,12,00,20.10
2022,10,16,12,01,20.10
2022,10,16,12,02,20.20
2022,10,16,12,03,20.20
2022,10,16,12,04,20.20
2022,10,16,12,05,20.20
2022,10,16,12,06,20.20
2022,10,16,12,07,20.20
2022,10,16,12,08,20.20
2022,10,16,12,09,20.30
2022,10,16,12,10,20.30
2022,10,16,12,11,20.30
2022,10,16,12,12,20.40
2022,10,16,12,13,20.40
2022,10,16,12,14,20.40
2022,10,16,12,15,20.40
2022,10,16,12,16,20.40
2022,10,16,12,17,20.50
2022,10,16,12,18,20.50
2022,10,16,12,19,20.50
2022,10,16,12,20,20.50
2022,10,16,12,21,20.60
2022,10,16,12,22,20.60
2022,10,16,12,23,20.60
2022,10,16,12,24,20.60
2022,10,16,12,25,20.60
2022,10,16,12,26,20.60
2022,10,16,12,27,20.60
2022,10,16,12,28,20.70
2022,10,16,12,29,20.70
2022,10,16,12,30,20.70
2022,10,16,12,31,20.70
2022,10,16,12,32,20.70
2022,10,16,12,33,20.70
2022,10,16,12,34,20.70
2022,10,16,12,35,20.70
2022,10,16,12,36,20.70
2022,10,16,12,37,20.70
2022,10,16,12,38,20.70
2022,10,16,12,39,20.80
2022,10,16,12,40,20.80
2022,10,16,12,41,20.80
2022,10,16,12,42,20.80
2022,10,16,12,43,20.80
2022,10,16,12,44,20.80
2022,10,16,12,45,20.90
2022,10,16,12,46,20.90
2022,10,16,12,47,20.90
2022,10,16,12,48,20.80
2022,10,16,12,49,20.80
2022,10,16,12,50,20.80
2022,10,16,12,51,20.80
2022,10,16,12,52,20.80
2022,10,16,12,53,20.80
2022,10,16,12,54,20.80
2022,10,16,12,55,20.80
2022,10,16,12,56,20.80
2022,10,16,12,57,20.80
2022,10,16,12,58,20.80
2022,10,16,12,59,20.80
2022,10,16,13,00,20.80
2022,10,16,13,01,20.80
2022,10,16,13,02,20.90
2022,10,16,13,03,20.90
2022,10,16,13,04,20.90
2022,10,16,13,05,20.90
2022,10,16,13,06,20.90
2022,10,16,13,07,20.90
2022,10,16,13,08,20.90
2022,10,16,13,09,20.90
2022,10,16,13,10,21.00
2022,10,16,13,11,21.00
2022,10,16,13,12,21.10
2022,10,16,13,13,21.00
2022,10,16,13,14,21.00
2022,10,16,13,15,21.10
2022,10,16,13,16,21.10
2022,10,16,13,17,21.10
2022,10,16,13,18,21.10
2022,10,16,13,19,21.10
2022,10,16,13,20,21.10
2022,10,16,13,21,21.20
2022,10,16,13,22,21.20
2022,10,16,13,23,21.20
2022,10,16,13,24,21.20
2022,10,16,13,25,21.20
2022,10,16,13,26,21.20
2022,10,16,13,27,21.20
2022,10,16,13,28,21.20
2022,10,16,13,29,21.20
2022,10,16,13,30,21.20
2022,10,16,13,31,21.20
2022,10,16,13,32,21.20
2022,10,16,13,33,21.20
2022,10,16,13,34,21.20
2022,10,16,13,35,21.20
2022,10,16,13,36,21.20
2022,10,16,13,37,21.20
2022,10,16,13,38,21.30
2022,10,16,13,39,21.30
2022,10,16,13,40,21.30
2022,10,16,13,41,21.30
2022,10,16,13,42,21.30
2022,10,16,13,43,21.40
2022,10,16,13,44,21.40
2022,10,16,13,45,21.40
2022,10,16,13,46,21.40
2022,10,16,13,47,21.40
2022,10,16,13,48,21.40
2022,10,16,13,49,21.40
2022,10,16,13,50,21.40
2022,10,16,13,51,21.40
2022,10,16,13,52,21.40
2022,10,16,13,53,21.40
2022,10,16,13,54,21.40
2022,10,16,13,55,21.50
2022,10,16,13,56,21.50
2022,10,16,13,57,21.50
2022,10,16,13,58,21.50
2022,10,16,13,59,21.50
2022,10,16,14,00,21.60
2022,10,16,14,01,21.60
2022,10,16,14,02,21.60
2022,10,16,14,03,21.60
2022,10,16,14,04,21.60
2022,10,16,14,05,21.60
2022,10,16,14,06,21.60
2022,10,16,14,07,21.60
2022,10,16,14,08,21.60
2022,10,16,14,09,21.60
2022,10,16,14,10,21.60
2022,10,16,14,11,21.70
2022,10,16,14,12,21.70
2022,10,16,14,13,21.70
2022,10,16,14,14,21.70
2022,10,16,14,15,21.70
2022,10,16,14,16,21.70
2022,10,16,14,17,21.80
2022,10,16,14,18,21.80
2022,10,16,14,19,21.80
2022,10,16,14,20,21.80
2022,10,16,14,21,21.80
2022,10,16,14,22,21.80
2022,10,16,14,23,21.80
2022,10,16,14,24,21.80
2022,10,16,14,25,21.80
2022,10,16,14,26,21.80
2022,10,16,14,27,21.80
2022,10,16,14,28,21.80
2022,10,16,14,29,21.90
2022,10,16,14,30,21.90
2022,10,16,14,31,21.90
2022,10,16,14,32,21.90
2022,10,16,14,33,22.00
2022,10,16,14,34,22.00
2022,10,16,14,35,22.10
2022,10,16,14,36,22.10
2022,10,16,14,37,22.10
2022,10,16,14,38,22.20
2022,10,16,14,39,22.20
2022,10,16,14,40,22.20
2022,10,16,14,41,22.20
2022,10,16,14,42,22.20
2022,10,16,14,43,22.20
2022,10,16,14,44,22.20
2022,10,16,14,45,22.20
2022,10,16,14,46,22.20
2022,10,16,14,47,22.30
2022,10,16,14,48,22.30
2022,10,16,14,49,22.30
2022,10,16,14,50,22.30
2022,10,16,14,51,22.30
2022,10,16,14,52,22.30
2022,10,16,14,53,22.40
2022,10,16,14,54,22.40
2022,10,16,14,55,22.40
2022,10,16,14,56,22.40
2022,10,16,14,57,22.40
2022,10,16,14,58,22.40
2022,10,16,14,59,22.40
2022,10,16,15,00,22.30
2022,10,16,15,01,22.30
2022,10,16,15,02,22.30
2022,10,16,15,03,22.30
2022,10,16,15,04,22.30
2022,10,16,15,05,22.30
2022,10,16,15,06,22.40
2022,10,16,15,07,22.40
2022,10,16,15,08,22.40
2022,10,16,15,09,22.40
2022,10,16,15,10,22.40
2022,10,16,15,11,22.40
2022,10,16,15,12,22.40
2022,10,16,15,13,22.40
2022,10,16,15,14,22.40
2022,10,16,15,15,22.40
2022,10,16,15,16,22.40
2022,10,16,15,17,22.40
2022,10,16,15,18,22.40
2022,10,16,15,19,22.40
2022,10,16,15,20,22.40
2022,10,16,15,21,22.50
2022,10,16,15,22,22.50
2022,10,16,15,23,22.50
2022,10,16,15,24,22.50
2022,10,16,15,25,22.50
2022,10,16,15,26,22.60
2022,10,16,15,27,22.60
2022,10,16,15,28,22.60
2022,10,16,15,29,22.60
2022,10,16,15,30,22.60
2022,10,16,15,31,22.60
2022,10,16,15,32,22.60
2022,10,16,15,33,22.70
2022,10,16,15,34,22.70
2022,10,16,15,35,22.70
2022,10,16,15,36,22.70
2022,10,16,15,37,22.70
2022,10,16,15,38,22.70
2022,10,16,15,39,22.70
2022,10,16,15,40,22.70
2022,10,16,15,41,22.70
2022,10,16,15,42,22.70
2022,10,16,15,43,22.70
2022,10,16,15,44,22.70
2022,10,16,15,45,22.70
2022,10,16,15,46,22.70
2022,10,16,15,47,22.70
2022,10,16,15,48,22.70
2022,10,16,15,49,22.80
2022,10,16,15,50,22.80
2022,10,16,15,51,22.80
2022,10,16,15,52,22.80
2022,10,16,15,53,22.80
2022,10,16,15,54,22.90
2022,10,16,15,55,22.90
2022,10,16,15,56,22.90
2022,10,16,15,57,22.90
2022,10,16,15,58,22.90
2022,10,16,15,59,22.90
2022,10,16,16,00,22.90
2022,10,16,16,01,23.00
2022,10,16,16,02,23.00
2022,10,16,16,03,23.00
2022,10,16,16,04,23.00
2022,10,16,16,05,23.10
2022,10,16,16,06,23.00
2022,10,16,16,07,23.00
2022,10,16,16,08,23.00
2022,10,16,16,09,23.00
2022,10,16,16,10,23.00
2022,10,16,16,11,23.00
2022,10,16,16,12,23.00
2022,10,16,16,13,23.00
2022,10,16,16,14,23.00
2022,10,16,16,15,23.00
2022,10,16,16,16,23.10
2022,10,16,16,17,23.10
2022,10,16,16,18,23.00
2022,10,16,16,19,23.00
2022,10,16,16,20,23.00
2022,10,16,16,21,23.00
2022,10,16,16,22,23.00
2022,10,16,16,23,23.00
2022,10,16,16,24,23.00
2022,10,16,16,25,23.10
2022,10,16,16,26,23.10
2022,10,16,16,27,23.10
2022,10,16,16,28,23.10
2022,10,16,16,29,23.10
2022,10,16,16,30,23.10
2022,10,16,16,31,23.10
2022,10,16,16,32,23.10
2022,10,16,16,33,23.10
2022,10,16,16,34,23.10
2022,10,16,16,35,23.20
2022,10,16,16,36,23.10
2022,10,16,16,37,23.10
2022,10,16,16,38,23.00
2022,10,16,16,39,23.00
2022,10,16,16,40,23.00
2022,10,16,16,41,23.00
2022,10,16,16,42,23.00
2022,10,16,16,43,23.10
2022,10,16,16,44,23.00
2022,10,16,16,45,23.00
2022,10,16,16,46,22.90
2022,10,16,16,47,22.90
2022,10,16,16,48,22.90
2022,10,16,16,49,22.80
2022,10,16,16,50,22.80
2022,10,16,16,51,22.80
2022,10,16,16,52,22.80
2022,10,16,16,53,22.90
2022,10,16,16,54,22.90
2022,10,16,16,55,22.90
2022,10,16,16,56,23.00
2022,10,16,16,57,23.00
2022,10,16,16,58,23.00
2022,10,16,16,59,22.90
2022,10,16,17,00,22.90
2022,10,16,17,01,22.90
2022,10,16,17,02,22.90
2022,10,16,17,03,22.90
2022,10,16,17,04,22.90
2022,10,16,17,05,22.90
2022,10,16,17,06,22.90
2022,10,16,17,07,22.90
2022,10,16,17,08,22.90
2022,10,16,17,09,22.80
2022,10,16,17,10,22.80
2022,10,16,17,11,22.70
2022,10,16,17,12,22.60
2022,10,16,17,13,22.50
2022,10,16,17,14,22.30
2022,10,16,17,15,22.10
2022,10,16,17,16,22.00
2022,10,16,17,17,21.90
2022,10,16,17,18,21.80
2022,10,16,17,19,21.70